Torna al catalogo

FENGYUN 1C DEB

AttivoPO
NORAD 35204·DEBRIS·🇨🇳 China

Lanciato May 10, 1999 da Taiyuan Satellite Launch Center

Loading…

Prossimi Passaggi (prossime 24 ore)

TLE

AggiornatoSource: Space-Track

Epoca: Sep 13, 2026, 01:36 UTC

1 35204U 99025DPL 26256.06721404  .00003970  00000-0  97715-3 0  9995
2 35204  98.9895 108.7116 0034208 219.3699 293.7511 14.52512242949080

Traccia FENGYUN 1C DEB in tempo reale con AllMySat

Download on the App Store